TimeEST,TemperatureF,Dew PointF,Humidity,Sea Level PressureIn,VisibilityMPH,Wind Direction,Wind SpeedMPH,Gust SpeedMPH,PrecipitationIn,Events,Conditions,WindDirDegrees,DateUTC
12:53 AM,35.1,30.9,85,30.22,10.0,Variable,3.5,-,N/A,,Overcast,0,2012-11-04 04:53:00
1:53 AM,36.0,28.9,76,30.22,10.0,East,5.8,-,N/A,,Overcast,100,2012-11-04 05:53:00
1:53 AM,35.1,28.0,76,30.22,10.0,Calm,Calm,-,N/A,,Overcast,0,2012-11-04 06:53:00
2:53 AM,35.1,28.0,76,30.23,10.0,Calm,Calm,-,N/A,,Overcast,0,2012-11-04 07:53:00
3:53 AM,35.1,28.0,76,30.22,10.0,ESE,4.6,-,N/A,,Overcast,110,2012-11-04 08:53:00
4:53 AM,34.0,28.0,79,30.23,10.0,Calm,Calm,-,N/A,,Overcast,0,2012-11-04 09:53:00
5:53 AM,34.0,28.0,79,30.23,10.0,Calm,Calm,-,N/A,,Overcast,0,2012-11-04 10:53:00
6:53 AM,34.0,28.0,79,30.23,10.0,Calm,Calm,-,N/A,,Overcast,0,2012-11-04 11:53:00
7:53 AM,35.1,28.9,78,30.24,10.0,Calm,Calm,-,N/A,,Overcast,0,2012-11-04 12:53:00
8:53 AM,35.1,28.9,78,30.25,10.0,Calm,Calm,-,N/A,,Overcast,0,2012-11-04 13:53:00
9:53 AM,37.9,28.9,70,30.24,10.0,NW,6.9,-,N/A,,Overcast,320,2012-11-04 14:53:00
10:53 AM,39.0,28.0,65,30.23,10.0,North,6.9,-,N/A,,Overcast,10,2012-11-04 15:53:00
11:53 AM,39.9,27.0,60,30.22,10.0,North,4.6,-,N/A,,Overcast,360,2012-11-04 16:53:00
12:30 PM,41.0,28.4,61,30.19,10.0,NE,6.9,-,N/A,,Overcast,40,2012-11-04 17:30:00
12:53 PM,41.0,28.0,60,30.21,10.0,North,6.9,-,N/A,,Overcast,10,2012-11-04 17:53:00
1:53 PM,41.0,28.9,62,30.20,10.0,North,4.6,-,N/A,,Overcast,10,2012-11-04 18:53:00
2:53 PM,41.0,28.9,62,30.20,10.0,North,6.9,-,N/A,,Overcast,10,2012-11-04 19:53:00
3:53 PM,42.1,28.9,60,30.20,10.0,North,6.9,-,N/A,,Overcast,10,2012-11-04 20:53:00
4:53 PM,41.0,28.0,60,30.20,10.0,North,4.6,-,N/A,,Overcast,360,2012-11-04 21:53:00
5:53 PM,39.9,28.0,63,30.20,10.0,North,4.6,-,N/A,,Overcast,350,2012-11-04 22:53:00
6:53 PM,39.9,28.9,65,30.21,10.0,NNE,6.9,-,N/A,,Overcast,20,2012-11-04 23:53:00
7:14 PM,39.2,26.6,61,30.19,10.0,North,5.8,-,N/A,,Overcast,350,2012-11-05 00:14:00
7:53 PM,39.0,28.9,67,30.21,10.0,East,8.1,-,N/A,,Overcast,100,2012-11-05 00:53:00
8:53 PM,37.0,28.9,73,30.21,10.0,Calm,Calm,-,N/A,,Overcast,0,2012-11-05 01:53:00
9:53 PM,37.9,28.9,70,30.21,10.0,East,3.5,-,N/A,,Overcast,100,2012-11-05 02:53:00
10:24 PM,37.4,28.4,70,30.19,10.0,Calm,Calm,-,N/A,,Overcast,0,2012-11-05 03:24:00
10:53 PM,37.0,28.9,73,30.21,10.0,ENE,5.8,-,N/A,,Overcast,70,2012-11-05 03:53:00